Regional Weather Roundup
Issued by NWS Huntsville, AL

Home | Current Version | Previous Version | Text Only | Print | Product List | Glossary On
Versions: 1 2 3 4 5 6 7 8 9 10 11 12 13 14 15 16 17 18 19 20 21 22 23 24 25 26 27 28
000
ASUS44 KHUN 231310
RWRHUN

WEATHER ROUNDUP FOR THE TENNESSEE VALLEY
NATIONAL WEATHER SERVICE HUNTSVILLE AL
700 AM CST THU FEB 23 2017

ALZ001>004-231400-
NORTHWEST ALABAMA

CITY           SKY/WX    TMP DP  RH WIND       PRES   REMARKS
COURTLAND HCN    N/A     48 N/A N/A CALM        N/A
RUSSELLVILLE     N/A     55 N/A N/A MISG        N/A
SHOALS AIRPORT FOG       52  51  97 E5        29.87R VSB 1/2
SHOALS TVA RES   N/A     52 N/A N/A MISG        N/A
$$

ALZ005>007-016-231400-
NORTH CENTRAL ALABAMA

CITY           SKY/WX    TMP DP  RH WIND       PRES   REMARKS
CULLMAN AG STN   N/A     46 N/A N/A CALM        N/A
DECATUR AP     CLEAR     54  54 100 E3        29.87R FOG
HUNTSVILLE AP  PTCLDY    57  56  96 SE7       29.86R
MERIDIANVILLE  CLEAR     57  54  88 SE7       29.87R
REDSTONE ARSN  CLEAR     56  55  97 S6        29.86R
VINEMONT AP    FAIR      55  54  97 SE6       29.89R FOG
$$

ALZ008>010-231400-
NORTHEAST ALABAMA

CITY           SKY/WX    TMP DP  RH WIND       PRES   REMARKS
ALBERTVILLE    CLOUDY    55  55 100 E3        29.87S
FORT PAYNE     CLOUDY    59  52  77 CALM      29.89S
SCOTTSBORO AP  CLOUDY    55  55 100 CALM      29.90R
SCOTTSBORO HCN   N/A     54 N/A N/A MISG        N/A
VALLEY HEAD      N/A     57 N/A N/A MISG        N/A
$$

TNZ076-096-097-231400-
SOUTHEASTERN MIDDLE TENNESSEE

CITY           SKY/WX    TMP DP  RH WIND       PRES   REMARKS
TULLAHOMA      CLEAR     55  55 100 SE6       29.89R
WINCHESTER     CLEAR     59  54  82 SE10      29.88S
$$

...SURROUNDING SITES...

CITY           SKY/WX    TMP DP  RH WIND       PRES   REMARKS
ATLANTA        PTCLDY    56  55  97 E8        29.90R
ANNISTON       CLEAR     57  56  96 E6        29.88S
BIRMINGHAM     PTCLDY    58  56  93 NE5       29.89R
CHATTANOOGA    FOG       53  52  96 CALM      29.91R VSB 1/4
CORINTH        CLOUDY    55  54  94 SE6       29.83S
DALTON         MOCLDY    48  48 100 CALM      29.91S
GADSDEN        CLOUDY    57  57 100 E6        29.89R
GOLDEN TRNGL   FOG       48  45  87 CALM      29.79S VSB 1/2
HALEYVILLE     CLOUDY    56  55  97 VRB6      29.88R FOG
JACKSON TN     CLEAR     55  55 100 S6        29.82R
MEMPHIS        MOCLDY    55  54  96 S7        29.79F
NASHVILLE      PTCLDY    55  53  93 CALM      29.87R FOG
OXFORD MS      FAIR      50  50 100 SE5       29.84S
ROME           FOG       49  47  93 CALM      29.90S VSB<1/4
SAVANNAH       CLOUDY    55  55 100 S3        29.84R FOG
TUPELO         CLOUDY    53  52  96 CALM      29.85R FOG
TUSCALOOSA     CLOUDY    59  58  96 E7        29.86R
$$

...GULF COAST WEATHER...

CITY           SKY/WX    TMP DP  RH WIND       PRES   REMARKS
GULFPORT       CLEAR     58  57  97 CALM      29.82R
PASCAGOULA     FOG       54  53  97 CALM      29.82S VSB 1
MOBILE         FOG       58  57  97 NE5       29.83R VSB 1/4
GULF SHORES    SUNNY     56  56 100 CALM      29.82R FOG
PENSACOLA      FOG       60  59  96 NE7       29.81R VSB 1
DESTIN         CLEAR     64  64 100 N7        29.82R
PANAMA CITY    MOCLDY    61  60  96 NE8       29.80R
APPALACHICOLA  PTCLDY    62  62 100 NE9       29.78R
$$





USA.gov is the U.S. government's official web portal to all federal, state and local government web resources and services.